FW5207 Weather Reports


time (UTC)temp
C
wind
direction
speed
KPH
gust
KPH
rain 1hr
cm
rain 24hr
cm
rain mn
cm
humidity
%
barometer
mb
20260504050117 3 149 17.7 35.4 0.08 1.63 0.10 97 974.5
20260504044546 3 191 14.5 27.4 0.10 1.63 0.10 97 975.4
20260504043043 3 173 14.5 30.6 0.05 1.57 0.05 97 976.4
20260504041538 3 186 14.5 33.8 0.05 1.55 0.05 97 977.4
20260504040041 3 145 17.7 38.6 0.03 1.55 0.03 97 977.5
20260504034545 3 156 14.5 32.2 0.00 1.52 0.00 96 978.7
20260504033031 4 180 14.5 38.6 0.00 1.52 0.00 96 979.7
20260504031527 4 190 11.3 27.4 0.00 1.52 0.00 96 980.4
20260504030035 5 221 6.4 29.0 0.00 1.52 0.00 97 981.1
20260504024519 5 164 9.7 24.1 0.00 1.52 1.52 97 981.8
20260504023016 5 201 6.4 19.3 0.03 1.52 1.52 98 982.5
20260504021513 5 180 9.7 33.8 0.05 1.52 1.52 98 983.1
20260504020011 5 201 9.7 25.7 0.05 1.52 1.52 99 983.4
20260504014517 5 156 9.7 24.1 0.08 1.52 1.52 99 983.9
20260504013008 5 213 8.0 30.6 0.10 1.50 1.50 98 984.6
20260504011504 5 169 6.4 19.3 0.13 1.45 1.45 99 985.1
20260504010125 4 96 4.8 16.1 0.15 1.42 1.42 98 986.2
20260504004558 3 232 4.8 17.7 0.18 1.42 1.42 98 987.0
20260504003055 3 350 6.4 16.1 0.25 1.40 1.40 98 987.7
20260504001608 3 151 8.0 20.9 0.36 1.37 1.37 98 988.6
20260504000051 3 325 6.4 19.3 0.43 1.30 1.30 98 989.5
20260503234547 3 253 4.8 12.9 0.51 1.27 1.27 98 989.8
20260503233045 3 331 6.4 19.3 0.43 1.12 1.12 98 990.8
20260503231548 3 331 6.4 19.3 0.36 0.99 0.99 98 992.1
20260503230041 3 350 3.2 14.5 0.30 0.86 0.86 98 993.4
20260503224534 3 68 4.8 12.9 0.23 0.71 0.71 98 993.9
20260503223033 3 356 3.2 9.7 0.33 0.71 0.71 98 994.6
20260503221529 3 302 3.2 14.5 0.33 0.61 0.61 98 995.3
20260503220035 2 341 3.2 12.9 0.38 0.56 0.56 98 996.0
20260503214526 2 57 4.8 16.1 0.33 0.48 0.48 98 996.5
20260503213041 2 59 3.2 14.5 0.25 0.38 0.38 97 996.7
20260503211525 2 259 4.8 17.7 0.18 0.30 0.30 97 996.6
20260503210020 2 25 3.2 22.5 0.05 0.18 0.18 97 997.8
20260503204518 2 15 4.8 17.7 0.05 0.15 0.15 97 998.9
20260503203022 2 123 4.8 17.7 0.03 0.13 0.13 97 999.4
20260503201515 1 315 4.8 16.1 0.03 0.13 0.13 96 1000.2
20260503200012 1 348 4.8 29.0 0.05 0.13 0.13 96 1000.8
20260503194510 1 246 3.2 14.5 0.05 0.10 0.10 95 1001.9
20260503193008 2 20 6.4 17.7 0.10 0.10 0.10 95 1002.0
20260503191504 2 84 4.8 14.5 0.10 0.10 0.10 94 1003.5
20260503190004 3 347 3.2 14.5 0.08 0.08 0.08 93 1003.6
20260503184634 4 25 1.6 8.0 0.05 0.05 0.05 92 1005.2
20260503183107 4 156 1.6 12.9 0.00 0.00 0.00 90 1005.8
20260503181557 5 20 1.6 9.7 0.00 0.00 0.00 88 1006.2
20260503180054 5 139 1.6 9.7 0.00 0.00 0.00 88 1007.1
20260503174609 5 173 0.0 6.4 0.00 0.00 0.00 88 1007.5
20260503173107 5 34 3.2 11.3 0.00 0.00 0.00 87 1008.1
20260503171549 5 169 1.6 4.8 0.00 0.00 0.00 86 1008.8
20260503081554 0 25 0.0 0.0 0.00 0.03 0.00 98 1015.8
20260503071601 0 203 0.0 0.0 0.00 0.08 0.00 98 1015.9